Aswan, Egypt

11:10 AM EET on May 27, 2018 (GMT +0200)
Aswan

Weather History for HESN - October, 2012

Change the Weather History Date:

Thursday, October 4, 2012

  Actual Average Record
Temperature  
Mean Temperature 92 °F -  
Max Temperature 104 °F 92 °F 111 °F (2010)
Min Temperature 80 °F 70 °F 70 °F (2014)
Cooling Degree Days 27    
Growing Degree Days 42 (Base 50)    
Moisture  
Dew Point 46 °F    
Average Humidity 20    
Maximum Humidity 30    
Minimum Humidity 9    
Precipitation  
Precipitation 0.00 in 0.00 in - ()
Sea Level Pressure  
Sea Level Pressure 29.86 in    
Wind  
Wind Speed 8 mph ()    
Max Wind Speed 13 mph    
Max Gust Speed -    
Visibility 6.0 miles    
Events      
Averages and records for this station are not official NWS values.
T = Trace of Precipitation, MM = Missing Value Source: Averaged Metar Reports

Daily Weather History Graph

Daily Weather History Graph

Search for Another Location

Airport or City:

Astronomy

Oct. 04, 2012 Rise Set
Actual Time 5:41 AM EET 5:32 PM EET
Civil Twilight 5:19 AM EET 5:55 PM EET
Nautical Twilight 4:52 AM EET 6:21 PM EET
Astronomical Twilight 4:26 AM EET 6:47 PM EET
Moon 8:21 PM EET (10/4) 9:13 AM EET (10/4)
Length of Visible Light 12h 36m
Length of Day
11h 50m
Waning Gibbous, 84% of the Moon is Illuminated
Oct 4
Waning Gibbous
Oct 8
Last Quarter
Oct 15
New
Oct 22
First Quarter
Oct 29
Full

Hourly Weather History & Observations

Time (EET) Temp. Dew Point Humidity Pressure Visibility Wind Dir Wind Speed Gust Speed Precip Events Conditions
12:00 AM 87.8 °F 42.8 °F 21% 29.89 in - North 8.1 mph - N/A   Clear
1:00 AM 86.0 °F 42.8 °F 22% 29.89 in - North 6.9 mph - N/A   Clear
2:00 AM 85 °F 44 °F 15% 29.85 in 6 mi North 8.1 mph - -  
2:00 AM 86.0 °F 44.6 °F 23% 29.86 in - North 8.1 mph - N/A   Clear
3:00 AM 84.2 °F 46.4 °F 27% 29.86 in - North 8.1 mph - N/A   Clear
4:00 AM 84.2 °F 46.4 °F 27% 29.86 in - North 10.4 mph - N/A   Clear
5:00 AM 82.4 °F 46.4 °F 28% 29.86 in - NNE 5.8 mph - N/A   Clear
6:00 AM 80.6 °F 46.4 °F 30% 29.89 in - North 6.9 mph - N/A   Clear
7:00 AM 82.4 °F 46.4 °F 28% 29.89 in - North 8.1 mph - N/A   Clear
8:00 AM 85 °F 48 °F 18% 29.88 in 6 mi North 9.2 mph - -  
8:00 AM 86.0 °F 48.2 °F 27% 29.92 in - North 9.2 mph - N/A   Clear
9:00 AM 89.6 °F 50.0 °F 26% 29.92 in - North 11.5 mph - N/A   Clear
10:00 AM 93.2 °F 48.2 °F 21% 29.92 in - North 11.5 mph - N/A   Clear
11:00 AM 96.8 °F 48.2 °F 19% 29.89 in - North 9.2 mph - N/A   Clear
12:00 PM 100.4 °F 48.2 °F 17% 29.86 in - North 9.2 mph - N/A   Clear
1:00 PM 102.2 °F 50.0 °F 17% 29.83 in - North 9.2 mph - N/A   Clear
2:00 PM 103 °F 51 °F 10% 29.77 in 6 mi North 8.1 mph - -  
2:00 PM 102.2 °F 50.0 °F 17% 29.80 in - North 8.1 mph - N/A   Clear
3:00 PM 104.0 °F 50.0 °F 16% 29.80 in - North 8.1 mph - N/A   Clear
4:00 PM 104.0 °F 50.0 °F 16% 29.80 in - North 9.2 mph - N/A   Clear
5:00 PM 102.2 °F 42.8 °F 13% 29.80 in - North 9.2 mph - N/A   Clear
6:00 PM 98.6 °F 42.8 °F 15% 29.80 in - North 9.2 mph - N/A   Clear
7:00 PM 95.0 °F 41.0 °F 15% 29.83 in - North 11.5 mph - N/A   Clear
8:00 PM 93 °F 40 °F 9% 29.81 in 6 mi North 12.7 mph - -  
8:00 PM 93.2 °F 41.0 °F 16% 29.86 in - North 12.7 mph - N/A   Clear
9:00 PM 89.6 °F 41.0 °F 18% 29.86 in - North 10.4 mph - N/A   Clear
10:00 PM 87.8 °F 41.0 °F 19% 29.86 in - North 9.2 mph - N/A   Clear
11:00 PM 86.0 °F 41.0 °F 20% 29.89 in - North 6.9 mph - N/A   Clear